No particular awareness of the weather is required.    There are no Weather-warnings


Meteo18 Weather Cam more information Meteo18 Weather Cam


Thunder radar more information blitzortung!


Rain radar more information rain snow radar


Visit our other weather sites:

Template documentation
and downloads

And another site



Weather Underground History page Text

Daily Summary for February 25, 2018 Units:  Both    English   Metric
« Previous Day
Next Day »
Daily Weekly Monthly Yearly Custom
  High: Low: Average:
Temperature: TemperatureC °F /  -17.8 °C -2.7 °F /  -19.3 °C -0.5 °F /  -18.1 °C
Dew Point: DewpointC °F /  -17.8 °C -11.9 °F /  -24.4 °C -8.1 °F /  -22.3 °C
Humidity: Humidity % 42 % 57 %
Wind Speed: WindSpeedKMH mph /  0 km/h - 15.9 mph /  25.6 km/h
Wind Gust: WindSpeedGustKMH mph /  0 km/h - -
Wind:- - NE
Pressure: PressurehPa in /  0 hPa 1014.4 in /  34347.6 hPa -
Precipitation: 0.0 in /  0 mm    
Historical Graphs
 
 
Tabular Data for February 25, 2018
Time Temperature Dew Point Pressure Wind Wind Speed Wind Gust Humidity Rainfall Rate (Hourly)
TemperatureC °F /  -17.8 °C DewpointC °F /  -17.8 °C PressurehPa in /  0 hPa Calm     Humidity % HourlyPrecipMM in /  0 mm
00:01 0.2 °F /  -17.7 °C -5.8 °F /  -21 °C 1014.4 in /  34347.6 hPa NNE 11.1 mph /  17.9 km/h 17.7 mph /  28.5 km/h 64 % 0.0 in /  0 mm
00:07 0.2 °F /  -17.7 °C -5.8 °F /  -21 °C 1014.4 in /  34347.6 hPa NE 11.1 mph /  17.9 km/h 17.7 mph /  28.5 km/h 64 % 0.0 in /  0 mm
00:13 0.1 °F /  -17.7 °C -5.9 °F /  -21.1 °C 1014.4 in /  34347.6 hPa NE 17.7 mph /  28.5 km/h 17.7 mph /  28.5 km/h 64 % 0.0 in /  0 mm
00:19 0.1 °F /  -17.7 °C -5.9 °F /  -21.1 °C 1014.8 in /  34361.1 hPa NE 13.0 mph /  20.9 km/h 19.3 mph /  31.1 km/h 64 % 0.0 in /  0 mm
00:25 0.0 °F /  -17.8 °C -6.0 °F /  -21.1 °C 1014.4 in /  34347.6 hPa NE 11.1 mph /  17.9 km/h 17.7 mph /  28.5 km/h 64 % 0.0 in /  0 mm
00:31 -0.1 °F /  -17.8 °C -5.9 °F /  -21.1 °C 1014.4 in /  34347.6 hPa NNE 9.7 mph /  15.6 km/h 12.9 mph /  20.8 km/h 65 % 0.0 in /  0 mm
00:37 -0.2 °F /  -17.9 °C -6.0 °F /  -21.1 °C 1014.4 in /  34347.6 hPa NNE 16.3 mph /  26.2 km/h 16.3 mph /  26.2 km/h 65 % 0.0 in /  0 mm
00:43 -0.2 °F /  -17.9 °C -6.0 °F /  -21.1 °C 1014.8 in /  34361.1 hPa NE 6.4 mph /  10.3 km/h 12.9 mph /  20.8 km/h 65 % 0.0 in /  0 mm
00:49 -0.3 °F /  -17.9 °C -6.1 °F /  -21.2 °C 1014.8 in /  34361.1 hPa NNE 7.9 mph /  12.7 km/h 16.1 mph /  25.9 km/h 65 % 0.0 in /  0 mm
00:55 -0.3 °F /  -17.9 °C -6.1 °F /  -21.2 °C 1014.4 in /  34347.6 hPa NE 11.1 mph /  17.9 km/h 16.1 mph /  25.9 km/h 65 % 0.0 in /  0 mm
01:01 -0.3 °F /  -17.9 °C -6.1 °F /  -21.2 °C 1014.4 in /  34347.6 hPa NE 14.3 mph /  23 km/h 14.5 mph /  23.3 km/h 65 % 0.0 in /  0 mm
01:07 -0.3 °F /  -17.9 °C -5.9 °F /  -21.1 °C 1014.8 in /  34361.1 hPa NNE 14.3 mph /  23 km/h 16.1 mph /  25.9 km/h 66 % 0.0 in /  0 mm
01:13 -0.3 °F /  -17.9 °C -6.1 °F /  -21.2 °C 1014.8 in /  34361.1 hPa NE 11.1 mph /  17.9 km/h 14.5 mph /  23.3 km/h 65 % 0.0 in /  0 mm
01:19 -0.3 °F /  -17.9 °C -5.9 °F /  -21.1 °C 1014.8 in /  34361.1 hPa NE 13.0 mph /  20.9 km/h 17.7 mph /  28.5 km/h 66 % 0.0 in /  0 mm
01:25 -0.3 °F /  -17.9 °C -5.9 °F /  -21.1 °C 1014.8 in /  34361.1 hPa ENE 11.1 mph /  17.9 km/h 12.9 mph /  20.8 km/h 66 % 0.0 in /  0 mm
01:31 -0.3 °F /  -17.9 °C -5.9 °F /  -21.1 °C 1014.8 in /  34361.1 hPa NE 11.1 mph /  17.9 km/h 14.5 mph /  23.3 km/h 66 % 0.0 in /  0 mm
01:37 -0.4 °F /  -18 °C -6.0 °F /  -21.1 °C 1014.8 in /  34361.1 hPa NNE 11.1 mph /  17.9 km/h 17.7 mph /  28.5 km/h 66 % 0.0 in /  0 mm
01:43 -0.3 °F /  -17.9 °C -5.9 °F /  -21.1 °C 1014.8 in /  34361.1 hPa NE 6.4 mph /  10.3 km/h 17.7 mph /  28.5 km/h 66 % 0.0 in /  0 mm
01:47 -0.4 °F /  -18 °C -5.8 °F /  -21 °C 1014.8 in /  34361.1 hPa NE 9.7 mph /  15.6 km/h 11.3 mph /  18.2 km/h 67 % 0.0 in /  0 mm
01:53 -0.4 °F /  -18 °C -5.8 °F /  -21 °C 1014.8 in /  34361.1 hPa NNE 4.7 mph /  7.6 km/h 11.3 mph /  18.2 km/h 67 % 0.0 in /  0 mm
01:59 -0.4 °F /  -18 °C -5.8 °F /  -21 °C 1014.8 in /  34361.1 hPa NNE 4.7 mph /  7.6 km/h 12.9 mph /  20.8 km/h 67 % 0.0 in /  0 mm
02:05 -0.4 °F /  -18 °C -6.0 °F /  -21.1 °C 1014.8 in /  34361.1 hPa NNE 14.3 mph /  23 km/h 17.7 mph /  28.5 km/h 66 % 0.0 in /  0 mm
02:11 -0.4 °F /  -18 °C -6.2 °F /  -21.2 °C 1014.8 in /  34361.1 hPa NNE 14.3 mph /  23 km/h 22.5 mph /  36.2 km/h 65 % 0.0 in /  0 mm
02:17 -0.4 °F /  -18 °C -6.0 °F /  -21.1 °C 1014.8 in /  34361.1 hPa ENE 13.0 mph /  20.9 km/h 19.3 mph /  31.1 km/h 66 % 0.0 in /  0 mm
02:23 -0.3 °F /  -17.9 °C -6.1 °F /  -21.2 °C 1015.1 in /  34371.3 hPa NNE 14.3 mph /  23 km/h 19.3 mph /  31.1 km/h 65 % 0.0 in /  0 mm
02:29 -0.3 °F /  -17.9 °C -6.1 °F /  -21.2 °C 1015.1 in /  34371.3 hPa NE 16.3 mph /  26.2 km/h 22.5 mph /  36.2 km/h 65 % 0.0 in /  0 mm
02:35 -0.4 °F /  -18 °C -6.2 °F /  -21.2 °C 1015.1 in /  34371.3 hPa NE 9.7 mph /  15.6 km/h 14.5 mph /  23.3 km/h 65 % 0.0 in /  0 mm
02:41 -0.4 °F /  -18 °C -6.2 °F /  -21.2 °C 1015.1 in /  34371.3 hPa NE 6.4 mph /  10.3 km/h 22.5 mph /  36.2 km/h 65 % 0.0 in /  0 mm
02:47 -0.4 °F /  -18 °C -6.0 °F /  -21.1 °C 1015.1 in /  34371.3 hPa NNE 7.9 mph /  12.7 km/h 12.9 mph /  20.8 km/h 66 % 0.0 in /  0 mm
02:53 -0.6 °F /  -18.1 °C -6.2 °F /  -21.2 °C 1015.1 in /  34371.3 hPa NE 13.0 mph /  20.9 km/h 14.5 mph /  23.3 km/h 66 % 0.0 in /  0 mm
02:59 -0.6 °F /  -18.1 °C -6.2 °F /  -21.2 °C 1015.1 in /  34371.3 hPa NNE 7.9 mph /  12.7 km/h 19.3 mph /  31.1 km/h 66 % 0.0 in /  0 mm
03:05 -0.7 °F /  -18.2 °C -6.1 °F /  -21.2 °C 1015.1 in /  34371.3 hPa ENE 4.7 mph /  7.6 km/h 11.3 mph /  18.2 km/h 67 % 0.0 in /  0 mm
03:11 -0.8 °F /  -18.2 °C -6.2 °F /  -21.2 °C 1015.1 in /  34371.3 hPa North 9.7 mph /  15.6 km/h 19.3 mph /  31.1 km/h 67 % 0.0 in /  0 mm
03:17 -0.8 °F /  -18.2 °C -6.2 °F /  -21.2 °C 1015.1 in /  34371.3 hPa NE 7.9 mph /  12.7 km/h 12.9 mph /  20.8 km/h 67 % 0.0 in /  0 mm
03:23 -0.9 °F /  -18.3 °C -6.1 °F /  -21.2 °C 1015.1 in /  34371.3 hPa NE 9.7 mph /  15.6 km/h 19.3 mph /  31.1 km/h 68 % 0.0 in /  0 mm
03:29 -1.0 °F /  -18.3 °C -6.0 °F /  -21.1 °C 1014.8 in /  34361.1 hPa NE 13.0 mph /  20.9 km/h 19.3 mph /  31.1 km/h 69 % 0.0 in /  0 mm
03:35 -1.0 °F /  -18.3 °C -6.0 °F /  -21.1 °C 1014.8 in /  34361.1 hPa NNE 13.0 mph /  20.9 km/h 22.5 mph /  36.2 km/h 69 % 0.0 in /  0 mm
03:41 -1.1 °F /  -18.4 °C -6.1 °F /  -21.2 °C 1014.8 in /  34361.1 hPa NNE 16.3 mph /  26.2 km/h 19.3 mph /  31.1 km/h 69 % 0.0 in /  0 mm
03:47 -1.1 °F /  -18.4 °C -6.1 °F /  -21.2 °C 1014.8 in /  34361.1 hPa NE 11.1 mph /  17.9 km/h 16.1 mph /  25.9 km/h 69 % 0.0 in /  0 mm
03:53 -1.1 °F /  -18.4 °C -6.1 °F /  -21.2 °C 1014.8 in /  34361.1 hPa NNE 13.0 mph /  20.9 km/h 25.7 mph /  41.4 km/h 69 % 0.0 in /  0 mm
03:59 -1.1 °F /  -18.4 °C -6.1 °F /  -21.2 °C 1014.8 in /  34361.1 hPa NE 7.9 mph /  12.7 km/h 20.9 mph /  33.6 km/h 69 % 0.0 in /  0 mm
04:05 -1.2 °F /  -18.4 °C -6.0 °F /  -21.1 °C 1014.8 in /  34361.1 hPa NE 14.3 mph /  23 km/h 17.7 mph /  28.5 km/h 70 % 0.0 in /  0 mm
04:11 -1.2 °F /  -18.4 °C -6.2 °F /  -21.2 °C 1015.1 in /  34371.3 hPa ENE 19.5 mph /  31.4 km/h 19.5 mph /  31.4 km/h 69 % 0.0 in /  0 mm
04:17 -1.2 °F /  -18.4 °C -6.0 °F /  -21.1 °C 1015.1 in /  34371.3 hPa NE 16.3 mph /  26.2 km/h 17.7 mph /  28.5 km/h 70 % 0.0 in /  0 mm
04:23 -1.3 °F /  -18.5 °C -6.1 °F /  -21.2 °C 1015.1 in /  34371.3 hPa NE 19.5 mph /  31.4 km/h 20.9 mph /  33.6 km/h 70 % 0.0 in /  0 mm
04:29 -1.3 °F /  -18.5 °C -6.1 °F /  -21.2 °C 1015.1 in /  34371.3 hPa NNE 16.3 mph /  26.2 km/h 22.5 mph /  36.2 km/h 70 % 0.0 in /  0 mm
04:35 -1.3 °F /  -18.5 °C -6.1 °F /  -21.2 °C 1015.1 in /  34371.3 hPa NNE 9.7 mph /  15.6 km/h 19.3 mph /  31.1 km/h 70 % 0.0 in /  0 mm
04:41 -1.3 °F /  -18.5 °C -6.1 °F /  -21.2 °C 1015.1 in /  34371.3 hPa NNE 7.9 mph /  12.7 km/h 20.9 mph /  33.6 km/h 70 % 0.0 in /  0 mm
04:47 -1.3 °F /  -18.5 °C -6.1 °F /  -21.2 °C 1015.1 in /  34371.3 hPa NE 25.9 mph /  41.7 km/h 25.9 mph /  41.7 km/h 70 % 0.0 in /  0 mm
04:53 -1.4 °F /  -18.6 °C -6.2 °F /  -21.2 °C 1015.1 in /  34371.3 hPa ENE 16.3 mph /  26.2 km/h 22.5 mph /  36.2 km/h 70 % 0.0 in /  0 mm
05:00 -1.4 °F /  -18.6 °C -6.0 °F /  -21.1 °C 1015.1 in /  34371.3 hPa NE 22.7 mph /  36.5 km/h 24.1 mph /  38.8 km/h 71 % 0.0 in /  0 mm
05:06 -1.5 °F /  -18.6 °C -6.3 °F /  -21.3 °C 1015.1 in /  34371.3 hPa NE 13.0 mph /  20.9 km/h 27.4 mph /  44.1 km/h 70 % 0.0 in /  0 mm
05:12 -1.6 °F /  -18.7 °C -6.2 °F /  -21.2 °C 1015.1 in /  34371.3 hPa North 17.7 mph /  28.5 km/h 27.4 mph /  44.1 km/h 71 % 0.0 in /  0 mm
05:18 -1.6 °F /  -18.7 °C -6.2 °F /  -21.2 °C 1015.1 in /  34371.3 hPa NNE 6.4 mph /  10.3 km/h 20.9 mph /  33.6 km/h 71 % 0.0 in /  0 mm
05:24 -1.6 °F /  -18.7 °C -6.2 °F /  -21.2 °C 1015.1 in /  34371.3 hPa North 25.9 mph /  41.7 km/h 25.9 mph /  41.7 km/h 71 % 0.0 in /  0 mm
05:30 -1.7 °F /  -18.7 °C -6.3 °F /  -21.3 °C 1015.1 in /  34371.3 hPa ENE 6.4 mph /  10.3 km/h 17.7 mph /  28.5 km/h 71 % 0.0 in /  0 mm
05:36 -1.7 °F /  -18.7 °C -6.3 °F /  -21.3 °C 1015.1 in /  34371.3 hPa NE 17.7 mph /  28.5 km/h 20.9 mph /  33.6 km/h 71 % 0.0 in /  0 mm
05:42 -1.8 °F /  -18.8 °C -6.2 °F /  -21.2 °C 1015.1 in /  34371.3 hPa NNE 6.4 mph /  10.3 km/h 24.1 mph /  38.8 km/h 72 % 0.0 in /  0 mm
05:48 -1.8 °F /  -18.8 °C -6.4 °F /  -21.3 °C 1015.1 in /  34371.3 hPa ENE 13.0 mph /  20.9 km/h 24.1 mph /  38.8 km/h 71 % 0.0 in /  0 mm
05:54 -1.8 °F /  -18.8 °C -6.4 °F /  -21.3 °C 1015.5 in /  34384.8 hPa NE 20.9 mph /  33.6 km/h 20.9 mph /  33.6 km/h 71 % 0.0 in /  0 mm
06:00 -1.8 °F /  -18.8 °C -6.4 °F /  -21.3 °C 1015.5 in /  34384.8 hPa NNE 11.1 mph /  17.9 km/h 25.7 mph /  41.4 km/h 71 % 0.0 in /  0 mm
06:06 -1.8 °F /  -18.8 °C -6.4 °F /  -21.3 °C 1015.5 in /  34384.8 hPa NNE 19.5 mph /  31.4 km/h 25.7 mph /  41.4 km/h 71 % 0.0 in /  0 mm
06:12 -1.9 °F /  -18.8 °C -6.5 °F /  -21.4 °C 1015.5 in /  34384.8 hPa ENE 24.1 mph /  38.8 km/h 29.0 mph /  46.7 km/h 71 % 0.0 in /  0 mm
06:18 -1.9 °F /  -18.8 °C -6.6 °F /  -21.4 °C 1015.5 in /  34384.8 hPa ENE 25.9 mph /  41.7 km/h 30.6 mph /  49.2 km/h 70 % 0.0 in /  0 mm
06:24 -1.9 °F /  -18.8 °C -6.6 °F /  -21.4 °C 1015.5 in /  34384.8 hPa NE 17.7 mph /  28.5 km/h 30.6 mph /  49.2 km/h 70 % 0.0 in /  0 mm
06:30 -1.9 °F /  -18.8 °C -6.6 °F /  -21.4 °C 1015.8 in /  34395 hPa ENE 22.7 mph /  36.5 km/h 29.0 mph /  46.7 km/h 70 % 0.0 in /  0 mm
06:36 -2.1 °F /  -18.9 °C -6.8 °F /  -21.6 °C 1015.8 in /  34395 hPa ENE 13.0 mph /  20.9 km/h 30.6 mph /  49.2 km/h 70 % 0.0 in /  0 mm
06:42 -2.1 °F /  -18.9 °C -6.8 °F /  -21.6 °C 1015.8 in /  34395 hPa NNE 20.9 mph /  33.6 km/h 29.0 mph /  46.7 km/h 70 % 0.0 in /  0 mm
06:48 -2.2 °F /  -19 °C -6.9 °F /  -21.6 °C 1015.8 in /  34395 hPa NNE 17.7 mph /  28.5 km/h 20.9 mph /  33.6 km/h 70 % 0.0 in /  0 mm
06:54 -2.2 °F /  -19 °C -6.9 °F /  -21.6 °C 1015.8 in /  34395 hPa NNE 19.5 mph /  31.4 km/h 30.6 mph /  49.2 km/h 70 % 0.0 in /  0 mm
07:00 -2.2 °F /  -19 °C -6.9 °F /  -21.6 °C 1015.8 in /  34395 hPa NE 6.4 mph /  10.3 km/h 27.4 mph /  44.1 km/h 70 % 0.0 in /  0 mm
07:06 -2.3 °F /  -19.1 °C -7.0 °F /  -21.7 °C 1016.1 in /  34405.1 hPa NE 11.1 mph /  17.9 km/h 30.6 mph /  49.2 km/h 70 % 0.0 in /  0 mm
07:12 -2.3 °F /  -19.1 °C -7.0 °F /  -21.7 °C 1016.1 in /  34405.1 hPa NE 16.3 mph /  26.2 km/h 20.9 mph /  33.6 km/h 70 % 0.0 in /  0 mm
07:18 -2.4 °F /  -19.1 °C -7.1 °F /  -21.7 °C 1015.8 in /  34395 hPa NNE 9.7 mph /  15.6 km/h 25.7 mph /  41.4 km/h 70 % 0.0 in /  0 mm
07:24 -2.4 °F /  -19.1 °C -7.3 °F /  -21.8 °C 1015.8 in /  34395 hPa ENE 22.7 mph /  36.5 km/h 29.0 mph /  46.7 km/h 69 % 0.0 in /  0 mm
07:30 -2.4 °F /  -19.1 °C -7.1 °F /  -21.7 °C 1016.1 in /  34405.1 hPa NE 14.3 mph /  23 km/h 24.1 mph /  38.8 km/h 70 % 0.0 in /  0 mm
07:36 -2.5 °F /  -19.2 °C -7.4 °F /  -21.9 °C 1016.1 in /  34405.1 hPa NNE 24.1 mph /  38.8 km/h 27.4 mph /  44.1 km/h 69 % 0.0 in /  0 mm
07:42 -2.6 °F /  -19.2 °C -7.5 °F /  -21.9 °C 1016.1 in /  34405.1 hPa NE 11.1 mph /  17.9 km/h 29.0 mph /  46.7 km/h 69 % 0.0 in /  0 mm
07:48 -2.6 °F /  -19.2 °C -7.3 °F /  -21.8 °C 1016.1 in /  34405.1 hPa NE 20.9 mph /  33.6 km/h 25.7 mph /  41.4 km/h 70 % 0.0 in /  0 mm
07:54 -2.6 °F /  -19.2 °C -7.5 °F /  -21.9 °C 1016.1 in /  34405.1 hPa NNE 25.9 mph /  41.7 km/h 33.8 mph /  54.4 km/h 69 % 0.0 in /  0 mm
08:00 -2.6 °F /  -19.2 °C -7.5 °F /  -21.9 °C 1016.1 in /  34405.1 hPa NE 16.3 mph /  26.2 km/h 32.2 mph /  51.8 km/h 69 % 0.0 in /  0 mm
08:06 -2.6 °F /  -19.2 °C -7.5 °F /  -21.9 °C 1016.1 in /  34405.1 hPa NE 24.1 mph /  38.8 km/h 27.4 mph /  44.1 km/h 69 % 0.0 in /  0 mm
08:12 -2.7 °F /  -19.3 °C -7.6 °F /  -22 °C 1016.1 in /  34405.1 hPa NE 16.3 mph /  26.2 km/h 24.1 mph /  38.8 km/h 69 % 0.0 in /  0 mm
08:18 -2.7 °F /  -19.3 °C -7.4 °F /  -21.9 °C 1016.5 in /  34418.7 hPa NNE 25.9 mph /  41.7 km/h 29.0 mph /  46.7 km/h 70 % 0.0 in /  0 mm
08:24 -2.7 °F /  -19.3 °C -7.4 °F /  -21.9 °C 1016.5 in /  34418.7 hPa NE 24.1 mph /  38.8 km/h 27.4 mph /  44.1 km/h 70 % 0.0 in /  0 mm
08:30 -2.6 °F /  -19.2 °C -7.5 °F /  -21.9 °C 1016.5 in /  34418.7 hPa NNE 25.9 mph /  41.7 km/h 32.2 mph /  51.8 km/h 69 % 0.0 in /  0 mm
08:36 -2.6 °F /  -19.2 °C -7.7 °F /  -22.1 °C 1016.5 in /  34418.7 hPa NNE 24.1 mph /  38.8 km/h 29.0 mph /  46.7 km/h 68 % 0.0 in /  0 mm
08:42 -2.5 °F /  -19.2 °C -7.6 °F /  -22 °C 1016.5 in /  34418.7 hPa NE 13.0 mph /  20.9 km/h 29.0 mph /  46.7 km/h 68 % 0.0 in /  0 mm
08:48 -2.4 °F /  -19.1 °C -7.5 °F /  -21.9 °C 1016.5 in /  34418.7 hPa NNE 32.0 mph /  51.5 km/h 35.4 mph /  57 km/h 68 % 0.0 in /  0 mm
08:54 -2.4 °F /  -19.1 °C -7.5 °F /  -21.9 °C 1016.8 in /  34428.8 hPa NE 16.3 mph /  26.2 km/h 24.1 mph /  38.8 km/h 68 % 0.0 in /  0 mm
09:00 -2.3 °F /  -19.1 °C -7.4 °F /  -21.9 °C 1016.8 in /  34428.8 hPa NE 24.1 mph /  38.8 km/h 33.8 mph /  54.4 km/h 68 % 0.0 in /  0 mm
09:06 -2.3 °F /  -19.1 °C -7.6 °F /  -22 °C 1016.8 in /  34428.8 hPa NE 14.3 mph /  23 km/h 25.7 mph /  41.4 km/h 67 % 0.0 in /  0 mm
09:12 -2.2 °F /  -19 °C -7.5 °F /  -21.9 °C 1016.8 in /  34428.8 hPa ENE 7.9 mph /  12.7 km/h 35.4 mph /  57 km/h 67 % 0.0 in /  0 mm
09:18 -2.2 °F /  -19 °C -7.7 °F /  -22.1 °C 1016.8 in /  34428.8 hPa NNE 25.9 mph /  41.7 km/h 27.4 mph /  44.1 km/h 66 % 0.0 in /  0 mm
09:24 -2.1 °F /  -18.9 °C -7.6 °F /  -22 °C 1017.2 in /  34442.4 hPa NNE 11.1 mph /  17.9 km/h 35.4 mph /  57 km/h 66 % 0.0 in /  0 mm
09:30 -2.1 °F /  -18.9 °C -7.8 °F /  -22.1 °C 1016.8 in /  34428.8 hPa NE 14.3 mph /  23 km/h 33.8 mph /  54.4 km/h 65 % 0.0 in /  0 mm
09:36 -2.0 °F /  -18.9 °C -7.5 °F /  -21.9 °C 1017.2 in /  34442.4 hPa ENE 14.3 mph /  23 km/h 27.4 mph /  44.1 km/h 66 % 0.0 in /  0 mm
09:42 -1.9 °F /  -18.8 °C -7.4 °F /  -21.9 °C 1017.2 in /  34442.4 hPa NE 16.3 mph /  26.2 km/h 24.1 mph /  38.8 km/h 66 % 0.0 in /  0 mm
09:48 -1.8 °F /  -18.8 °C -7.5 °F /  -21.9 °C 1017.2 in /  34442.4 hPa NE 24.1 mph /  38.8 km/h 29.0 mph /  46.7 km/h 65 % 0.0 in /  0 mm
09:54 -1.9 °F /  -18.8 °C -7.6 °F /  -22 °C 1017.2 in /  34442.4 hPa ENE 14.3 mph /  23 km/h 27.4 mph /  44.1 km/h 65 % 0.0 in /  0 mm
10:00 -1.8 °F /  -18.8 °C -7.7 °F /  -22.1 °C 1017.2 in /  34442.4 hPa NE 20.9 mph /  33.6 km/h 29.0 mph /  46.7 km/h 64 % 0.0 in /  0 mm
10:06 -1.7 °F /  -18.7 °C -7.2 °F /  -21.8 °C 1017.2 in /  34442.4 hPa NE 14.3 mph /  23 km/h 19.3 mph /  31.1 km/h 66 % 0.0 in /  0 mm
10:12 -1.5 °F /  -18.6 °C -7.2 °F /  -21.8 °C 1017.2 in /  34442.4 hPa NE 9.7 mph /  15.6 km/h 24.1 mph /  38.8 km/h 65 % 0.0 in /  0 mm
10:18 -1.4 °F /  -18.6 °C -7.5 °F /  -21.9 °C 1017.2 in /  34442.4 hPa NE 20.9 mph /  33.6 km/h 32.2 mph /  51.8 km/h 63 % 0.0 in /  0 mm
10:24 -1.4 °F /  -18.6 °C -7.3 °F /  -21.8 °C 1017.2 in /  34442.4 hPa NE 9.7 mph /  15.6 km/h 25.7 mph /  41.4 km/h 64 % 0.0 in /  0 mm
10:30 -1.3 °F /  -18.5 °C -7.4 °F /  -21.9 °C 1017.2 in /  34442.4 hPa ENE 7.9 mph /  12.7 km/h 22.5 mph /  36.2 km/h 63 % 0.0 in /  0 mm
10:36 -1.3 °F /  -18.5 °C -7.4 °F /  -21.9 °C 1017.2 in /  34442.4 hPa NE 28.8 mph /  46.3 km/h 30.6 mph /  49.2 km/h 63 % 0.0 in /  0 mm
10:42 -1.2 °F /  -18.4 °C -7.1 °F /  -21.7 °C 1017.2 in /  34442.4 hPa NE 25.9 mph /  41.7 km/h 30.6 mph /  49.2 km/h 64 % 0.0 in /  0 mm
10:48 -1.2 °F /  -18.4 °C -7.3 °F /  -21.8 °C 1017.2 in /  34442.4 hPa ENE 24.1 mph /  38.8 km/h 29.0 mph /  46.7 km/h 63 % 0.0 in /  0 mm
10:54 -1.1 °F /  -18.4 °C -7.2 °F /  -21.8 °C 1017.2 in /  34442.4 hPa NNE 27.4 mph /  44.1 km/h 32.2 mph /  51.8 km/h 63 % 0.0 in /  0 mm
11:00 -1.1 °F /  -18.4 °C -7.2 °F /  -21.8 °C 1017.2 in /  34442.4 hPa ENE 13.0 mph /  20.9 km/h 29.0 mph /  46.7 km/h 63 % 0.0 in /  0 mm
11:06 -1.1 °F /  -18.4 °C -7.2 °F /  -21.8 °C 1017.2 in /  34442.4 hPa NE 30.6 mph /  49.2 km/h 30.6 mph /  49.2 km/h 63 % 0.0 in /  0 mm
11:12 -0.9 °F /  -18.3 °C -6.9 °F /  -21.6 °C 1017.5 in /  34452.6 hPa NNE 16.3 mph /  26.2 km/h 19.3 mph /  31.1 km/h 64 % 0.0 in /  0 mm
11:18 -0.8 °F /  -18.2 °C -7.2 °F /  -21.8 °C 1017.5 in /  34452.6 hPa NE 22.7 mph /  36.5 km/h 30.6 mph /  49.2 km/h 62 % 0.0 in /  0 mm
11:24 -0.8 °F /  -18.2 °C -7.2 °F /  -21.8 °C 1017.5 in /  34452.6 hPa NNE 19.5 mph /  31.4 km/h 30.6 mph /  49.2 km/h 62 % 0.0 in /  0 mm
11:30 -0.7 °F /  -18.2 °C -6.9 °F /  -21.6 °C 1017.5 in /  34452.6 hPa NE 24.1 mph /  38.8 km/h 32.2 mph /  51.8 km/h 63 % 0.0 in /  0 mm
11:36 -0.7 °F /  -18.2 °C -7.3 °F /  -21.8 °C 1017.5 in /  34452.6 hPa NNE 24.1 mph /  38.8 km/h 38.6 mph /  62.1 km/h 61 % 0.0 in /  0 mm
11:42 -0.7 °F /  -18.2 °C -7.5 °F /  -21.9 °C 1017.5 in /  34452.6 hPa NE 19.5 mph /  31.4 km/h 37.0 mph /  59.5 km/h 60 % 0.0 in /  0 mm
11:48 -0.7 °F /  -18.2 °C -7.3 °F /  -21.8 °C 1017.5 in /  34452.6 hPa NE 32.0 mph /  51.5 km/h 35.4 mph /  57 km/h 61 % 0.0 in /  0 mm
11:54 -0.7 °F /  -18.2 °C -7.5 °F /  -21.9 °C 1017.2 in /  34442.4 hPa NE 22.7 mph /  36.5 km/h 40.2 mph /  64.7 km/h 60 % 0.0 in /  0 mm
12:00 -0.4 °F /  -18 °C -7.2 °F /  -21.8 °C 1017.5 in /  34452.6 hPa NE 30.6 mph /  49.2 km/h 37.0 mph /  59.5 km/h 60 % 0.0 in /  0 mm
12:06 -0.3 °F /  -17.9 °C -6.9 °F /  -21.6 °C 1017.5 in /  34452.6 hPa ENE 32.0 mph /  51.5 km/h 32.2 mph /  51.8 km/h 61 % 0.0 in /  0 mm
12:12 -0.1 °F /  -17.8 °C -6.9 °F /  -21.6 °C 1017.8 in /  34462.7 hPa NE 20.9 mph /  33.6 km/h 29.0 mph /  46.7 km/h 60 % 0.0 in /  0 mm
12:18 -0.1 °F /  -17.8 °C -7.2 °F /  -21.8 °C 1017.8 in /  34462.7 hPa NE 11.1 mph /  17.9 km/h 35.4 mph /  57 km/h 59 % 0.0 in /  0 mm
12:24 -0.1 °F /  -17.8 °C -7.4 °F /  -21.9 °C 1017.8 in /  34462.7 hPa ENE 22.7 mph /  36.5 km/h 29.0 mph /  46.7 km/h 58 % 0.0 in /  0 mm
12:30 0.1 °F /  -17.7 °C -7.2 °F /  -21.8 °C 1017.8 in /  34462.7 hPa ENE 9.7 mph /  15.6 km/h 35.4 mph /  57 km/h 58 % 0.0 in /  0 mm
12:36 0.1 °F /  -17.7 °C -7.2 °F /  -21.8 °C 1017.5 in /  34452.6 hPa NE 7.9 mph /  12.7 km/h 29.0 mph /  46.7 km/h 58 % 0.0 in /  0 mm
12:42 0.1 °F /  -17.7 °C -7.4 °F /  -21.9 °C 1017.5 in /  34452.6 hPa NNE 27.4 mph /  44.1 km/h 37.0 mph /  59.5 km/h 57 % 0.0 in /  0 mm
12:48 0.1 °F /  -17.7 °C -7.2 °F /  -21.8 °C 1017.5 in /  34452.6 hPa NE 28.8 mph /  46.3 km/h 29.0 mph /  46.7 km/h 58 % 0.0 in /  0 mm
12:54 0.3 °F /  -17.6 °C -6.8 °F /  -21.6 °C 1017.5 in /  34452.6 hPa NNE 19.5 mph /  31.4 km/h 29.0 mph /  46.7 km/h 59 % 0.0 in /  0 mm
13:00 0.4 °F /  -17.6 °C -7.1 °F /  -21.7 °C 1017.5 in /  34452.6 hPa NE 30.6 mph /  49.2 km/h 37.0 mph /  59.5 km/h 57 % 0.0 in /  0 mm
13:06 0.4 °F /  -17.6 °C -7.1 °F /  -21.7 °C 1017.5 in /  34452.6 hPa NE 7.9 mph /  12.7 km/h 22.5 mph /  36.2 km/h 57 % 0.0 in /  0 mm
13:12 0.5 °F /  -17.5 °C -7.5 °F /  -21.9 °C 1017.5 in /  34452.6 hPa NNE 25.9 mph /  41.7 km/h 37.0 mph /  59.5 km/h 55 % 0.0 in /  0 mm
13:18 0.6 °F /  -17.4 °C -7.2 °F /  -21.8 °C 1017.5 in /  34452.6 hPa NE 11.1 mph /  17.9 km/h 33.8 mph /  54.4 km/h 56 % 0.0 in /  0 mm
13:24 0.8 °F /  -17.3 °C -7.5 °F /  -21.9 °C 1017.5 in /  34452.6 hPa North 13.0 mph /  20.9 km/h 38.6 mph /  62.1 km/h 54 % 0.0 in /  0 mm
13:30 0.7 °F /  -17.4 °C -7.1 °F /  -21.7 °C 1017.5 in /  34452.6 hPa NE 19.5 mph /  31.4 km/h 35.4 mph /  57 km/h 56 % 0.0 in /  0 mm
13:36 0.8 °F /  -17.3 °C -7.7 °F /  -22.1 °C 1017.5 in /  34452.6 hPa NE 25.9 mph /  41.7 km/h 38.6 mph /  62.1 km/h 53 % 0.0 in /  0 mm
13:42 0.7 °F /  -17.4 °C -7.5 °F /  -21.9 °C 1017.5 in /  34452.6 hPa NNE 25.9 mph /  41.7 km/h 40.2 mph /  64.7 km/h 54 % 0.0 in /  0 mm
13:48 0.8 °F /  -17.3 °C -7.2 °F /  -21.8 °C 1017.5 in /  34452.6 hPa ENE 13.0 mph /  20.9 km/h 30.6 mph /  49.2 km/h 55 % 0.0 in /  0 mm
13:54 1.1 °F /  -17.2 °C -6.7 °F /  -21.5 °C 1017.5 in /  34452.6 hPa NE 17.7 mph /  28.5 km/h 24.1 mph /  38.8 km/h 56 % 0.0 in /  0 mm
14:00 1.1 °F /  -17.2 °C -7.4 °F /  -21.9 °C 1017.5 in /  34452.6 hPa North 20.9 mph /  33.6 km/h 32.2 mph /  51.8 km/h 53 % 0.0 in /  0 mm
14:06 1.2 °F /  -17.1 °C -7.3 °F /  -21.8 °C 1017.5 in /  34452.6 hPa NNE 24.1 mph /  38.8 km/h 35.4 mph /  57 km/h 53 % 0.0 in /  0 mm
14:12 1.1 °F /  -17.2 °C -7.7 °F /  -22.1 °C 1017.5 in /  34452.6 hPa NE 30.6 mph /  49.2 km/h 32.2 mph /  51.8 km/h 52 % 0.0 in /  0 mm
14:18 1.4 °F /  -17 °C -7.4 °F /  -21.9 °C 1017.5 in /  34452.6 hPa NNE 20.9 mph /  33.6 km/h 29.0 mph /  46.7 km/h 52 % 0.0 in /  0 mm
14:24 1.7 °F /  -16.8 °C -7.6 °F /  -22 °C 1017.5 in /  34452.6 hPa NNE 27.4 mph /  44.1 km/h 33.8 mph /  54.4 km/h 50 % 0.0 in /  0 mm
14:30 1.7 °F /  -16.8 °C -7.4 °F /  -21.9 °C 1017.5 in /  34452.6 hPa North 11.1 mph /  17.9 km/h 24.1 mph /  38.8 km/h 51 % 0.0 in /  0 mm
14:36 1.7 °F /  -16.8 °C -7.9 °F /  -22.2 °C 1017.5 in /  34452.6 hPa NE 27.4 mph /  44.1 km/h 33.8 mph /  54.4 km/h 49 % 0.0 in /  0 mm
14:42 1.8 °F /  -16.8 °C -7.8 °F /  -22.1 °C 1017.5 in /  34452.6 hPa NNE 19.5 mph /  31.4 km/h 30.6 mph /  49.2 km/h 49 % 0.0 in /  0 mm
14:48 1.8 °F /  -16.8 °C -8.3 °F /  -22.4 °C 1017.5 in /  34452.6 hPa NNE 30.6 mph /  49.2 km/h 38.6 mph /  62.1 km/h 47 % 0.0 in /  0 mm
14:54 1.7 °F /  -16.8 °C -8.4 °F /  -22.4 °C 1017.5 in /  34452.6 hPa NE 20.9 mph /  33.6 km/h 40.2 mph /  64.7 km/h 47 % 0.0 in /  0 mm
15:00 1.8 °F /  -16.8 °C -8.3 °F /  -22.4 °C 1017.5 in /  34452.6 hPa NE 17.7 mph /  28.5 km/h 25.7 mph /  41.4 km/h 47 % 0.0 in /  0 mm
15:06 1.9 °F /  -16.7 °C -8.0 °F /  -22.2 °C 1017.5 in /  34452.6 hPa NE 24.1 mph /  38.8 km/h 35.4 mph /  57 km/h 48 % 0.0 in /  0 mm
15:12 2.1 °F /  -16.6 °C -8.0 °F /  -22.2 °C 1017.5 in /  34452.6 hPa NNE 9.7 mph /  15.6 km/h 29.0 mph /  46.7 km/h 47 % 0.0 in /  0 mm
15:18 2.2 °F /  -16.6 °C -8.2 °F /  -22.3 °C 1017.5 in /  34452.6 hPa NE 14.3 mph /  23 km/h 38.6 mph /  62.1 km/h 46 % 0.0 in /  0 mm
15:24 2.4 °F /  -16.4 °C -7.8 °F /  -22.1 °C 1017.5 in /  34452.6 hPa NNE 16.3 mph /  26.2 km/h 22.5 mph /  36.2 km/h 47 % 0.0 in /  0 mm
15:30 2.3 °F /  -16.5 °C -8.7 °F /  -22.6 °C 1017.5 in /  34452.6 hPa ENE 22.7 mph /  36.5 km/h 30.6 mph /  49.2 km/h 44 % 0.0 in /  0 mm
15:37 2.4 °F /  -16.4 °C -8.0 °F /  -22.2 °C 1017.5 in /  34452.6 hPa North 7.9 mph /  12.7 km/h 24.1 mph /  38.8 km/h 46 % 0.0 in /  0 mm
15:43 2.4 °F /  -16.4 °C -8.3 °F /  -22.4 °C 1017.5 in /  34452.6 hPa East 9.7 mph /  15.6 km/h 20.9 mph /  33.6 km/h 45 % 0.0 in /  0 mm
15:49 2.6 °F /  -16.3 °C -8.1 °F /  -22.3 °C 1017.5 in /  34452.6 hPa NE 9.7 mph /  15.6 km/h 30.6 mph /  49.2 km/h 45 % 0.0 in /  0 mm
15:55 2.5 °F /  -16.4 °C -8.2 °F /  -22.3 °C 1017.5 in /  34452.6 hPa NNE 20.9 mph /  33.6 km/h 27.4 mph /  44.1 km/h 45 % 0.0 in /  0 mm
16:01 2.5 °F /  -16.4 °C -8.2 °F /  -22.3 °C 1017.5 in /  34452.6 hPa North 22.7 mph /  36.5 km/h 30.6 mph /  49.2 km/h 45 % 0.0 in /  0 mm
16:07 2.6 °F /  -16.3 °C -7.9 °F /  -22.2 °C 1017.5 in /  34452.6 hPa NNE 17.7 mph /  28.5 km/h 30.6 mph /  49.2 km/h 46 % 0.0 in /  0 mm
16:13 2.5 °F /  -16.4 °C -8.5 °F /  -22.5 °C 1017.5 in /  34452.6 hPa NE 22.7 mph /  36.5 km/h 29.0 mph /  46.7 km/h 44 % 0.0 in /  0 mm
16:19 2.6 °F /  -16.3 °C -8.1 °F /  -22.3 °C 1017.8 in /  34462.7 hPa NE 4.7 mph /  7.6 km/h 25.7 mph /  41.4 km/h 45 % 0.0 in /  0 mm
16:25 2.5 °F /  -16.4 °C -8.8 °F /  -22.7 °C 1017.8 in /  34462.7 hPa NE 27.4 mph /  44.1 km/h 41.8 mph /  67.3 km/h 43 % 0.0 in /  0 mm
16:31 2.4 °F /  -16.4 °C -8.9 °F /  -22.7 °C 1017.8 in /  34462.7 hPa ENE 11.1 mph /  17.9 km/h 27.4 mph /  44.1 km/h 43 % 0.0 in /  0 mm
16:37 2.5 °F /  -16.4 °C -8.8 °F /  -22.7 °C 1017.8 in /  34462.7 hPa ENE 24.1 mph /  38.8 km/h 32.2 mph /  51.8 km/h 43 % 0.0 in /  0 mm
16:43 2.4 °F /  -16.4 °C -8.6 °F /  -22.6 °C 1017.8 in /  34462.7 hPa NNE 17.7 mph /  28.5 km/h 27.4 mph /  44.1 km/h 44 % 0.0 in /  0 mm
16:49 2.3 °F /  -16.5 °C -9.0 °F /  -22.8 °C 1017.8 in /  34462.7 hPa NNE 24.1 mph /  38.8 km/h 29.0 mph /  46.7 km/h 43 % 0.0 in /  0 mm
16:55 2.3 °F /  -16.5 °C -8.4 °F /  -22.4 °C 1017.8 in /  34462.7 hPa NE 22.7 mph /  36.5 km/h 24.1 mph /  38.8 km/h 45 % 0.0 in /  0 mm
17:01 2.3 °F /  -16.5 °C -8.7 °F /  -22.6 °C 1017.8 in /  34462.7 hPa NNE 13.0 mph /  20.9 km/h 27.4 mph /  44.1 km/h 44 % 0.0 in /  0 mm
17:07 2.3 °F /  -16.5 °C -8.4 °F /  -22.4 °C 1017.8 in /  34462.7 hPa NE 17.7 mph /  28.5 km/h 22.5 mph /  36.2 km/h 45 % 0.0 in /  0 mm
17:13 2.2 °F /  -16.6 °C -8.5 °F /  -22.5 °C 1018.2 in /  34476.3 hPa NNE 9.7 mph /  15.6 km/h 20.9 mph /  33.6 km/h 45 % 0.0 in /  0 mm
17:19 2.1 °F /  -16.6 °C -9.2 °F /  -22.9 °C 1018.2 in /  34476.3 hPa NE 17.7 mph /  28.5 km/h 30.6 mph /  49.2 km/h 43 % 0.0 in /  0 mm
17:25 1.9 °F /  -16.7 °C -9.7 °F /  -23.2 °C 1018.2 in /  34476.3 hPa NNE 19.5 mph /  31.4 km/h 33.8 mph /  54.4 km/h 42 % 0.0 in /  0 mm
17:31 1.9 °F /  -16.7 °C -9.1 °F /  -22.8 °C 1018.2 in /  34476.3 hPa NNE 17.7 mph /  28.5 km/h 20.9 mph /  33.6 km/h 44 % 0.0 in /  0 mm
17:37 1.9 °F /  -16.7 °C -9.1 °F /  -22.8 °C 1018.2 in /  34476.3 hPa NNE 7.9 mph /  12.7 km/h 20.9 mph /  33.6 km/h 44 % 0.0 in /  0 mm
17:43 1.9 °F /  -16.7 °C -9.4 °F /  -23 °C 1018.2 in /  34476.3 hPa NE 14.3 mph /  23 km/h 30.6 mph /  49.2 km/h 43 % 0.0 in /  0 mm
17:49 1.8 °F /  -16.8 °C -9.8 °F /  -23.2 °C 1018.2 in /  34476.3 hPa NNE 27.4 mph /  44.1 km/h 29.0 mph /  46.7 km/h 42 % 0.0 in /  0 mm
17:55 1.7 °F /  -16.8 °C -9.5 °F /  -23.1 °C 1018.5 in /  34486.4 hPa ENE 11.1 mph /  17.9 km/h 22.5 mph /  36.2 km/h 43 % 0.0 in /  0 mm
18:01 1.6 °F /  -16.9 °C -9.6 °F /  -23.1 °C 1018.5 in /  34486.4 hPa NE 16.3 mph /  26.2 km/h 19.3 mph /  31.1 km/h 43 % 0.0 in /  0 mm
18:07 1.6 °F /  -16.9 °C -9.6 °F /  -23.1 °C 1018.5 in /  34486.4 hPa NNE 19.5 mph /  31.4 km/h 22.5 mph /  36.2 km/h 43 % 0.0 in /  0 mm
18:13 1.4 °F /  -17 °C -9.8 °F /  -23.2 °C 1018.5 in /  34486.4 hPa NE 19.5 mph /  31.4 km/h 24.1 mph /  38.8 km/h 43 % 0.0 in /  0 mm
18:19 1.3 °F /  -17.1 °C -10.2 °F /  -23.4 °C 1018.5 in /  34486.4 hPa North 16.3 mph /  26.2 km/h 22.5 mph /  36.2 km/h 42 % 0.0 in /  0 mm
18:25 1.1 °F /  -17.2 °C -9.8 °F /  -23.2 °C 1018.5 in /  34486.4 hPa NE 17.7 mph /  28.5 km/h 32.2 mph /  51.8 km/h 44 % 0.0 in /  0 mm
18:31 0.9 °F /  -17.3 °C -9.7 °F /  -23.2 °C 1018.5 in /  34486.4 hPa NNE 13.0 mph /  20.9 km/h 22.5 mph /  36.2 km/h 45 % 0.0 in /  0 mm
18:37 0.9 °F /  -17.3 °C -10.3 °F /  -23.5 °C 1018.5 in /  34486.4 hPa NNE 17.7 mph /  28.5 km/h 33.8 mph /  54.4 km/h 43 % 0.0 in /  0 mm
18:43 0.8 °F /  -17.3 °C -10.1 °F /  -23.4 °C 1018.8 in /  34496.6 hPa NE 13.0 mph /  20.9 km/h 20.9 mph /  33.6 km/h 44 % 0.0 in /  0 mm
18:49 0.7 °F /  -17.4 °C -10.5 °F /  -23.6 °C 1018.8 in /  34496.6 hPa NNE 13.0 mph /  20.9 km/h 20.9 mph /  33.6 km/h 43 % 0.0 in /  0 mm
18:55 0.6 °F /  -17.4 °C -10.5 °F /  -23.6 °C 1018.8 in /  34496.6 hPa NE 16.3 mph /  26.2 km/h 22.5 mph /  36.2 km/h 43 % 0.0 in /  0 mm
19:01 0.4 °F /  -17.6 °C -10.2 °F /  -23.4 °C 1018.8 in /  34496.6 hPa NE 9.7 mph /  15.6 km/h 14.5 mph /  23.3 km/h 45 % 0.0 in /  0 mm
19:07 0.3 °F /  -17.6 °C -10.2 °F /  -23.4 °C 1018.8 in /  34496.6 hPa NE 17.7 mph /  28.5 km/h 17.7 mph /  28.5 km/h 45 % 0.0 in /  0 mm
19:13 0.3 °F /  -17.6 °C -10.5 °F /  -23.6 °C 1018.8 in /  34496.6 hPa Calm   20.9 mph /  33.6 km/h 44 % 0.0 in /  0 mm
19:19 0.2 °F /  -17.7 °C -10.1 °F /  -23.4 °C 1019.2 in /  34510.1 hPa NNE 6.4 mph /  10.3 km/h 16.1 mph /  25.9 km/h 46 % 0.0 in /  0 mm
19:25 0.2 °F /  -17.7 °C -10.9 °F /  -23.8 °C 1019.2 in /  34510.1 hPa NE 30.6 mph /  49.2 km/h 30.6 mph /  49.2 km/h 43 % 0.0 in /  0 mm
19:31 0.2 °F /  -17.7 °C -10.9 °F /  -23.8 °C 1019.2 in /  34510.1 hPa NE 11.1 mph /  17.9 km/h 29.0 mph /  46.7 km/h 43 % 0.0 in /  0 mm
19:37 0.2 °F /  -17.7 °C -10.6 °F /  -23.7 °C 1019.2 in /  34510.1 hPa NNE 13.0 mph /  20.9 km/h 22.5 mph /  36.2 km/h 44 % 0.0 in /  0 mm
19:43 0.0 °F /  -17.8 °C -10.5 °F /  -23.6 °C 1019.2 in /  34510.1 hPa NE 13.0 mph /  20.9 km/h 25.7 mph /  41.4 km/h 45 % 0.0 in /  0 mm
19:49 -0.1 °F /  -17.8 °C -10.6 °F /  -23.7 °C 1019.2 in /  34510.1 hPa NE 19.5 mph /  31.4 km/h 25.7 mph /  41.4 km/h 45 % 0.0 in /  0 mm
19:55 -0.2 °F /  -17.9 °C -11.0 °F /  -23.9 °C 1019.2 in /  34510.1 hPa NE 13.0 mph /  20.9 km/h 33.8 mph /  54.4 km/h 44 % 0.0 in /  0 mm
20:01 -0.2 °F /  -17.9 °C -11.0 °F /  -23.9 °C 1019.2 in /  34510.1 hPa NNE 19.5 mph /  31.4 km/h 22.5 mph /  36.2 km/h 44 % 0.0 in /  0 mm
20:07 -0.3 °F /  -17.9 °C -10.8 °F /  -23.8 °C 1019.2 in /  34510.1 hPa NNE 13.0 mph /  20.9 km/h 22.5 mph /  36.2 km/h 45 % 0.0 in /  0 mm
20:13 -0.4 °F /  -18 °C -11.2 °F /  -24 °C 1019.2 in /  34510.1 hPa North 13.0 mph /  20.9 km/h 29.0 mph /  46.7 km/h 44 % 0.0 in /  0 mm
20:19 -0.5 °F /  -18.1 °C -11.0 °F /  -23.9 °C 1019.2 in /  34510.1 hPa NNE 7.9 mph /  12.7 km/h 19.3 mph /  31.1 km/h 45 % 0.0 in /  0 mm
20:25 -0.6 °F /  -18.1 °C -11.4 °F /  -24.1 °C 1019.2 in /  34510.1 hPa NE 17.7 mph /  28.5 km/h 20.9 mph /  33.6 km/h 44 % 0.0 in /  0 mm
20:31 -0.6 °F /  -18.1 °C -11.4 °F /  -24.1 °C 1019.2 in /  34510.1 hPa NNE 9.7 mph /  15.6 km/h 25.7 mph /  41.4 km/h 44 % 0.0 in /  0 mm
20:37 -0.7 °F /  -18.2 °C -11.4 °F /  -24.1 °C 1019.2 in /  34510.1 hPa ENE 14.3 mph /  23 km/h 25.7 mph /  41.4 km/h 44 % 0.0 in /  0 mm
20:43 -0.8 °F /  -18.2 °C -11.0 °F /  -23.9 °C 1019.5 in /  34520.3 hPa NE 13.0 mph /  20.9 km/h 22.5 mph /  36.2 km/h 46 % 0.0 in /  0 mm
20:49 -0.8 °F /  -18.2 °C -11.3 °F /  -24.1 °C 1019.2 in /  34510.1 hPa NNE 14.3 mph /  23 km/h 20.9 mph /  33.6 km/h 45 % 0.0 in /  0 mm
20:55 -0.9 °F /  -18.3 °C -11.6 °F /  -24.2 °C 1019.2 in /  34510.1 hPa NNE 9.7 mph /  15.6 km/h 22.5 mph /  36.2 km/h 44 % 0.0 in /  0 mm
21:01 -0.9 °F /  -18.3 °C -11.9 °F /  -24.4 °C 1019.5 in /  34520.3 hPa NE 19.5 mph /  31.4 km/h 24.1 mph /  38.8 km/h 43 % 0.0 in /  0 mm
21:07 -0.9 °F /  -18.3 °C -11.6 °F /  -24.2 °C 1019.2 in /  34510.1 hPa NW 4.7 mph /  7.6 km/h 20.9 mph /  33.6 km/h 44 % 0.0 in /  0 mm
21:13 -1.0 °F /  -18.3 °C -11.7 °F /  -24.3 °C 1019.5 in /  34520.3 hPa NNE 6.4 mph /  10.3 km/h 11.3 mph /  18.2 km/h 44 % 0.0 in /  0 mm
21:19 -1.1 °F /  -18.4 °C -11.8 °F /  -24.3 °C 1019.5 in /  34520.3 hPa NNE 11.1 mph /  17.9 km/h 20.9 mph /  33.6 km/h 44 % 0.0 in /  0 mm
21:25 -1.1 °F /  -18.4 °C -11.5 °F /  -24.2 °C 1019.5 in /  34520.3 hPa NNE 13.0 mph /  20.9 km/h 22.5 mph /  36.2 km/h 45 % 0.0 in /  0 mm
21:31 -1.2 °F /  -18.4 °C -11.3 °F /  -24.1 °C 1019.5 in /  34520.3 hPa North 9.7 mph /  15.6 km/h 24.1 mph /  38.8 km/h 46 % 0.0 in /  0 mm
21:37 -1.3 °F /  -18.5 °C -11.7 °F /  -24.3 °C 1019.5 in /  34520.3 hPa NE 11.1 mph /  17.9 km/h 19.3 mph /  31.1 km/h 45 % 0.0 in /  0 mm
21:43 -1.3 °F /  -18.5 °C -11.4 °F /  -24.1 °C 1019.5 in /  34520.3 hPa NNE 7.9 mph /  12.7 km/h 20.9 mph /  33.6 km/h 46 % 0.0 in /  0 mm
21:49 -1.4 °F /  -18.6 °C -11.3 °F /  -24.1 °C 1019.5 in /  34520.3 hPa North 7.9 mph /  12.7 km/h 20.9 mph /  33.6 km/h 47 % 0.0 in /  0 mm
21:55 -1.5 °F /  -18.6 °C -11.4 °F /  -24.1 °C 1019.5 in /  34520.3 hPa North 4.7 mph /  7.6 km/h 22.5 mph /  36.2 km/h 47 % 0.0 in /  0 mm
22:01 -1.6 °F /  -18.7 °C -11.4 °F /  -24.1 °C 1019.5 in /  34520.3 hPa NNE 4.7 mph /  7.6 km/h 27.4 mph /  44.1 km/h 47 % 0.0 in /  0 mm
22:07 -1.6 °F /  -18.7 °C -11.4 °F /  -24.1 °C 1019.5 in /  34520.3 hPa NE 3.2 mph /  5.1 km/h 29.0 mph /  46.7 km/h 47 % 0.0 in /  0 mm
22:13 -1.7 °F /  -18.7 °C -11.3 °F /  -24.1 °C 1019.5 in /  34520.3 hPa NNE 16.3 mph /  26.2 km/h 16.3 mph /  26.2 km/h 48 % 0.0 in /  0 mm
22:19 -1.7 °F /  -18.7 °C -11.5 °F /  -24.2 °C 1019.5 in /  34520.3 hPa North 9.7 mph /  15.6 km/h 20.9 mph /  33.6 km/h 47 % 0.0 in /  0 mm
22:25 -1.7 °F /  -18.7 °C -11.5 °F /  -24.2 °C 1019.5 in /  34520.3 hPa North 16.3 mph /  26.2 km/h 17.7 mph /  28.5 km/h 47 % 0.0 in /  0 mm
22:31 -1.7 °F /  -18.7 °C -11.5 °F /  -24.2 °C 1019.5 in /  34520.3 hPa NE 16.3 mph /  26.2 km/h 19.3 mph /  31.1 km/h 47 % 0.0 in /  0 mm
22:37 -1.7 °F /  -18.7 °C -11.5 °F /  -24.2 °C 1019.5 in /  34520.3 hPa NE 13.0 mph /  20.9 km/h 22.5 mph /  36.2 km/h 47 % 0.0 in /  0 mm
22:43 -1.8 °F /  -18.8 °C -11.4 °F /  -24.1 °C 1019.5 in /  34520.3 hPa NE 13.0 mph /  20.9 km/h 19.3 mph /  31.1 km/h 48 % 0.0 in /  0 mm
22:49 -1.8 °F /  -18.8 °C -11.4 °F /  -24.1 °C 1019.5 in /  34520.3 hPa NNW 7.9 mph /  12.7 km/h 20.9 mph /  33.6 km/h 48 % 0.0 in /  0 mm
22:55 -1.9 °F /  -18.8 °C -11.5 °F /  -24.2 °C 1019.5 in /  34520.3 hPa NNE 6.4 mph /  10.3 km/h 27.4 mph /  44.1 km/h 48 % 0.0 in /  0 mm
23:01 -2.0 °F /  -18.9 °C -11.3 °F /  -24.1 °C 1019.9 in /  34533.8 hPa NE 16.3 mph /  26.2 km/h 22.5 mph /  36.2 km/h 49 % 0.0 in /  0 mm
23:07 -2.1 °F /  -18.9 °C -11.4 °F /  -24.1 °C 1019.5 in /  34520.3 hPa NNE 7.9 mph /  12.7 km/h 19.3 mph /  31.1 km/h 49 % 0.0 in /  0 mm
23:13 -2.1 °F /  -18.9 °C -11.1 °F /  -23.9 °C 1019.9 in /  34533.8 hPa NE 17.7 mph /  28.5 km/h 17.7 mph /  28.5 km/h 50 % 0.0 in /  0 mm
23:19 -2.1 °F /  -18.9 °C -11.4 °F /  -24.1 °C 1019.9 in /  34533.8 hPa NE 25.9 mph /  41.7 km/h 27.4 mph /  44.1 km/h 49 % 0.0 in /  0 mm
23:25 -2.2 °F /  -19 °C -11.5 °F /  -24.2 °C 1019.5 in /  34520.3 hPa NNE 16.3 mph /  26.2 km/h 20.9 mph /  33.6 km/h 49 % 0.0 in /  0 mm
23:31 -2.3 °F /  -19.1 °C -11.3 °F /  -24.1 °C 1019.5 in /  34520.3 hPa NNE 27.4 mph /  44.1 km/h 27.4 mph /  44.1 km/h 50 % 0.0 in /  0 mm
23:37 -2.4 °F /  -19.1 °C -11.4 °F /  -24.1 °C 1019.5 in /  34520.3 hPa NNE 16.3 mph /  26.2 km/h 25.7 mph /  41.4 km/h 50 % 0.0 in /  0 mm
23:43 -2.4 °F /  -19.1 °C -11.4 °F /  -24.1 °C 1019.5 in /  34520.3 hPa NNE 9.7 mph /  15.6 km/h 24.1 mph /  38.8 km/h 50 % 0.0 in /  0 mm
23:49 -2.4 °F /  -19.1 °C -11.7 °F /  -24.3 °C 1019.9 in /  34533.8 hPa NNE 13.0 mph /  20.9 km/h 32.2 mph /  51.8 km/h 49 % 0.0 in /  0 mm
23:55 -2.5 °F /  -19.2 °C -11.8 °F /  -24.3 °C 1019.5 in /  34520.3 hPa NE 19.5 mph /  31.4 km/h 22.5 mph /  36.2 km/h 49 % 0.0 in /  0 mm
Meteo18
Compliments of Weather Underground - 4 mb

Script developed by  Jim McMurry - jmcmurry@mwt.net Adapted for the template by  Wim van der Kuil - Leuven-Template.eu

You find our weather info also at:

European Weather Network

Weather Underground

Equipment we use:

Weather-station
Davis Vue

Weather-program
Meteobridge

Weather-server
Raspberry PI 2 B+

Provider
1 and 1

Davis Vue

Meteobridge

Raspberry PI 2 B+

1 and 1